Regional Weather Roundup
Issued by NWS

Home | Current Version | Previous Version | Graphics & Text | Print | Product List | Glossary On
Versions: 1 2 3 4 5 6 7 8 9 10 11 12 13 14 15 16 17 18 19 20 21 22 23 24 25 26 27 28 29 30 31 32 33 34 35 36 37 38 39 40 41 42 43 44 45 46 47 48 49 50
000
ASUS43 KDMX 030207
RWRIA

WEATHER ROUNDUP FOR IOWA
NATIONAL WEATHER SERVICE DES MOINES IA
900 PM CDT TUE JUN 02 2015

NOTE: "FAIR" INDICATES FEW OR NO CLOUDS BELOW 12,000 FEET WITH NO
SIGNIFICANT WEATHER AND/OR OBSTRUCTIONS TO VISIBILITY.

* - THESE STATIONS ARE NOT NWS STATIONS...THUS NOT UNDER NWS
QUALITY CONTROL.  THEY ALSO DO NOT REPORT WEATHER SUCH
AS PRECIPITATION OR FOG.

IAZ001>003-012>014-020>022-031>034-043>046-030300-
   NORTHWEST IOWA

CITY           SKY/WX    TMP DP  RH WIND       PRES   REMARKS
CARROLL *      CLEAR     68  57  68 S14G22    29.93R
CHEROKEE *     CLEAR     70  57  64 S14G20    29.89S
DENISON *      CLEAR     68  59  73 S14G23    29.90S
LE MARS *      CLEAR     73  59  60 S13G18    29.88R
ORANGE CITY *  CLEAR     72  57  60 S15G21    29.87R
SHELDON *      CLEAR     72  57  60 S18G28    29.86R
SIOUX CITY     MOCLDY    72  59  63 S15G23    29.88R
SPENCER        CLEAR     70  56  61 S20G29    29.89S
STORM LAKE *   CLEAR     68  57  68 S15G23    29.92R
$$

IAZ055>058-069>071-079>083-090>094-030300-
   SOUTHWEST IOWA

CITY           SKY/WX    TMP DP  RH WIND       PRES   REMARKS
ATLANTIC *     PTCLDY    68  57  68 S10G17    29.94S
AUDUBON *      CLEAR     66  57  72 S10       29.95S
CLARINDA *     CLEAR     63  61  94 SE8G14    29.95F
COUNCIL BLFS * CLEAR     64  63  94 SE15G22   29.91F
CRESTON *      CLEAR     64  57  77 S12       29.98R
HARLAN  *      CLEAR     66  61  82 SE15G22   29.96S
LAMONI         MOCLDY    67  57  70 S6        29.98F
RED OAK *      PTCLDY    64  61  88 SE8       29.94R
SHENANDOAH *   CLOUDY    66  59  77 SE12G17   29.93R
$$

IAZ047>049-059>061-072>074-084-030300-
   CENTRAL IOWA

CITY           SKY/WX    TMP DP  RH WIND       PRES   REMARKS
AMES           CLOUDY    65  54  67 SE12      29.97S
ANKENY *       CLEAR     66  57  72 S9        29.97S
CHARITON *       N/A     64  57  77 SE9       29.98F
DES MOINES     MOCLDY    68  55  63 S10       29.97S
GRINNELL*      MOCLDY    63  54  72 SE6       30.01S
KNOXVILLE *    CLEAR     64  55  72 SE7       29.98S
MARSHALLTOWN   MOCLDY    65  54  67 SE7       29.99S
PELLA *        PTCLDY    63  59  88 SE5       30.00S
PERRY *          N/A     66  55  68 S10       29.96S
$$

IAZ004>006-015-016-023>025-035-036-030300-
   NORTH CENTRAL IOWA

CITY           SKY/WX    TMP DP  RH WIND       PRES   REMARKS
ALGONA *       CLEAR     68  55  64 S18G24    29.93S
CLARION *      CLEAR     68  52  56 S18       29.95S
ESTHERVILLE    CLEAR     68  54  60 S22       29.88F
FORT DODGE *   MOCLDY    66  54  63 SE9       29.95S
MASON CITY     MOCLDY    67  53  61 S14       29.97R
FOREST CITY *  CLEAR     64  52  63 S13       29.95S
IOWA FALLS *     N/A     66  54  63 SE13      29.99S
$$

IAZ007>011-017>019-026>030-037>042-050>054-066-030300-
   NORTHEAST IOWA

CITY           SKY/WX    TMP DP  RH WIND       PRES   REMARKS
CEDAR RAPIDS   PTCLDY    63  55  75 S7        30.01S
CHARLES CITY * CLEAR     68  54  60 S10       29.98F
CLINTON *      PTCLDY    66  48  52 SE6       30.05F
DECORAH *      CLEAR     66  50  55 SE6       29.99F
DUBUQUE        PTCLDY    63  50  62 SE7       30.03F
MONTICELLO *   CLEAR     66  52  59 SE5       30.01F
OELWEIN *      CLEAR     66  52  59 S9        30.01S
WATERLOO       CLOUDY    67  53  61 S13       29.98S
$$

IAZ064-065-067-068-078-030300-
   EAST CENTRAL IOWA

CITY           SKY/WX    TMP DP  RH WIND       PRES   REMARKS
DAVENPORT      PTCLDY    64  50  60 SE7       30.03F
IOWA CITY      PTCLDY    66  54  65 S3        30.03S
MT. PLEASANT * PTCLDY    63  55  77 SE5       30.02F
MUSCATINE *    CLEAR     66  55  68 SW5       30.02S
QUAD CITIES    MOCLDY    64  54  69 SE6       30.02F
$$

IAZ062-063-075>077-085>089-095>099-030300-
   SOUTHEAST IOWA

CITY           SKY/WX    TMP DP  RH WIND       PRES   REMARKS
BURLINGTON     CLEAR     64  55  72 SE3       30.02F
FAIRFIELD *    CLEAR     63  54  72 SE6       30.02S
FORT MADISON *   N/A     63  57  82 CALM      30.03F
KEOKUK *       CLEAR     64  57  77 CALM      30.02S
OSKALOOSA *      N/A     63  55  77 SE7       30.01S
CENTERVILLE *  CLEAR     59  59 100 SE7       30.01F
OTTUMWA        PTCLDY    61  56  83 SE6       30.00F
WASHINGTON *   CLEAR     64  55  72 SE3       30.03S
$$

ABBREVIATIONS USED IN REMARKS
   TC - TEMPERATURES IN CELSIUS
  WCI - WIND CHILL INDEX
   HX - HEAT INDEX
  VSB - VISIBILITY
$$



USA.gov is the U.S. government's official web portal to all federal, state and local government web resources and services.